date,time,SUV Intensity [MED/Hr],UV Index,Daily total [MED],Since Last [MED]
13/09/2023,00:01:13,0.001,0.0,0.0,0.0
13/09/2023,00:02:14,0.000,0.0,0.0,0.0
13/09/2023,00:03:13,0.001,0.0,0.0,0.0
13/09/2023,00:04:13,0.000,0.0,0.0,0.0
13/09/2023,00:05:13,0.000,0.0,0.0,0.0
13/09/2023,00:06:13,-0.000,0.0,0.0,0.0
13/09/2023,00:07:13,-0.000,0.0,0.0,0.0
13/09/2023,00:08:14,0.000,0.0,0.0,0.0
13/09/2023,00:09:14,0.000,0.0,0.0,0.0
13/09/2023,00:10:13,0.000,0.0,0.0,0.0
13/09/2023,00:11:14,0.000,0.0,0.0,0.0
13/09/2023,00:12:13,0.001,0.0,0.0,0.0
13/09/2023,00:13:14,-0.001,0.0,0.0,0.0
13/09/2023,00:14:13,0.000,0.0,0.0,0.0
13/09/2023,00:15:13,0.000,0.0,0.0,0.0
13/09/2023,00:16:13,-0.000,0.0,0.0,0.0
13/09/2023,00:17:13,-0.001,0.0,0.0,0.0
13/09/2023,00:18:13,0.000,0.0,0.0,0.0
13/09/2023,00:19:13,0.001,0.0,0.0,0.0
13/09/2023,00:20:13,0.000,0.0,0.0,0.0
13/09/2023,00:21:14,0.000,0.0,0.0,0.0
13/09/2023,00:22:13,-0.000,0.0,0.0,0.0
13/09/2023,00:23:13,0.000,0.0,0.0,0.0
13/09/2023,00:24:13,0.000,0.0,0.0,0.0
13/09/2023,00:25:13,-0.001,0.0,0.0,0.0
13/09/2023,00:26:13,0.001,0.0,0.0,0.0
13/09/2023,00:27:13,0.000,0.0,0.0,0.0
13/09/2023,00:28:13,0.000,0.0,0.0,0.0
13/09/2023,00:29:14,0.001,0.0,0.0,0.0
13/09/2023,00:30:13,0.000,0.0,0.0,0.0
13/09/2023,00:31:14,-0.001,0.0,0.0,0.0
13/09/2023,00:32:13,-0.000,0.0,0.0,0.0
13/09/2023,00:33:13,-0.001,0.0,0.0,0.0
13/09/2023,00:34:11,0.001,0.0,0.0,0.0
13/09/2023,00:35:12,0.000,0.0,0.0,0.0
13/09/2023,00:36:14,0.000,0.0,0.0,0.0
13/09/2023,00:37:13,-0.001,0.0,0.0,0.0
13/09/2023,00:38:13,-0.000,0.0,0.0,0.0
13/09/2023,00:39:14,-0.001,0.0,0.0,0.0
13/09/2023,00:40:13,-0.000,0.0,0.0,0.0
13/09/2023,00:41:13,-0.000,0.0,0.0,0.0
13/09/2023,00:42:13,-0.000,0.0,0.0,0.0
13/09/2023,00:43:13,-0.000,0.0,0.0,0.0
13/09/2023,00:44:13,-0.000,0.0,0.0,0.0
13/09/2023,00:45:13,-0.001,0.0,0.0,0.0
13/09/2023,00:46:13,-0.001,0.0,0.0,0.0
13/09/2023,00:47:14,-0.000,0.0,0.0,0.0
13/09/2023,00:48:13,-0.001,0.0,0.0,0.0
13/09/2023,00:49:13,-0.001,0.0,0.0,0.0
13/09/2023,00:50:14,0.000,0.0,0.0,0.0
13/09/2023,00:51:13,-0.000,0.0,0.0,0.0
13/09/2023,00:52:13,-0.000,0.0,0.0,0.0
13/09/2023,00:53:13,-0.000,0.0,0.0,0.0
13/09/2023,00:54:14,0.001,0.0,0.0,0.0
13/09/2023,00:55:13,-0.000,0.0,0.0,0.0
13/09/2023,00:56:13,-0.000,0.0,0.0,0.0
13/09/2023,00:57:13,-0.000,0.0,0.0,0.0
13/09/2023,00:58:13,-0.000,0.0,0.0,0.0
13/09/2023,00:59:14,-0.000,0.0,0.0,0.0
13/09/2023,01:00:13,-0.000,0.0,0.0,0.0
13/09/2023,01:01:14,-0.000,0.0,0.0,0.0
13/09/2023,01:02:13,-0.000,0.0,0.0,0.0
13/09/2023,01:03:11,-0.000,0.0,0.0,0.0
13/09/2023,01:04:11,0.001,0.0,0.0,0.0
13/09/2023,01:05:13,-0.000,0.0,0.0,0.0
13/09/2023,01:06:14,-0.000,0.0,0.0,0.0
13/09/2023,01:07:13,-0.001,0.0,0.0,0.0
13/09/2023,01:08:13,-0.000,0.0,0.0,0.0
13/09/2023,01:09:14,-0.000,0.0,0.0,0.0
13/09/2023,01:10:13,-0.000,0.0,0.0,0.0
13/09/2023,01:11:13,-0.001,0.0,0.0,0.0
13/09/2023,01:12:14,0.001,0.0,0.0,0.0
13/09/2023,01:13:13,-0.001,0.0,0.0,0.0
13/09/2023,01:14:14,-0.001,0.0,0.0,0.0
13/09/2023,01:15:14,-0.001,0.0,0.0,0.0
13/09/2023,01:16:13,0.001,0.0,0.0,0.0
13/09/2023,01:17:13,-0.000,0.0,0.0,0.0
13/09/2023,01:18:13,-0.001,0.0,0.0,0.0
13/09/2023,01:19:13,-0.001,0.0,0.0,0.0
13/09/2023,01:20:13,-0.000,0.0,0.0,0.0
13/09/2023,01:21:13,-0.000,0.0,0.0,0.0
13/09/2023,01:22:14,-0.000,0.0,0.0,0.0
13/09/2023,01:23:13,0.000,0.0,0.0,0.0
13/09/2023,01:24:13,0.001,0.0,0.0,0.0
13/09/2023,01:25:13,-0.001,0.0,0.0,0.0
13/09/2023,01:26:14,0.001,0.0,0.0,0.0
13/09/2023,01:27:13,-0.001,0.0,0.0,0.0
13/09/2023,01:28:13,-0.001,0.0,0.0,0.0
13/09/2023,01:29:13,-0.000,0.0,0.0,0.0
13/09/2023,01:30:13,0.001,0.0,0.0,0.0
13/09/2023,01:31:13,-0.001,0.0,0.0,0.0
13/09/2023,01:32:11,-0.000,0.0,0.0,0.0
13/09/2023,01:33:11,-0.000,0.0,0.0,0.0
13/09/2023,01:34:13,-0.001,0.0,0.0,0.0
13/09/2023,01:35:13,0.000,0.0,0.0,0.0
13/09/2023,01:36:13,-0.000,0.0,0.0,0.0
13/09/2023,01:37:13,-0.000,0.0,0.0,0.0
13/09/2023,01:38:11,-0.001,0.0,0.0,0.0
13/09/2023,01:39:11,-0.000,0.0,0.0,0.0
13/09/2023,01:40:13,-0.001,0.0,0.0,0.0
13/09/2023,01:41:13,-0.000,0.0,0.0,0.0
13/09/2023,01:42:14,-0.000,0.0,0.0,0.0
13/09/2023,01:43:13,0.000,0.0,0.0,0.0
13/09/2023,01:44:13,-0.001,0.0,0.0,0.0
13/09/2023,01:45:14,0.000,0.0,0.0,0.0
13/09/2023,01:46:13,0.000,0.0,0.0,0.0
13/09/2023,01:47:13,-0.000,0.0,0.0,0.0
13/09/2023,01:48:13,-0.000,0.0,0.0,0.0
13/09/2023,01:49:13,-0.000,0.0,0.0,0.0
13/09/2023,01:50:14,0.001,0.0,0.0,0.0
13/09/2023,01:51:13,-0.000,0.0,0.0,0.0
13/09/2023,01:52:14,-0.001,0.0,0.0,0.0
13/09/2023,01:53:13,-0.000,0.0,0.0,0.0
13/09/2023,01:54:13,0.001,0.0,0.0,0.0
13/09/2023,01:55:13,0.001,0.0,0.0,0.0
13/09/2023,01:56:14,0.000,0.0,0.0,0.0
13/09/2023,01:57:13,0.000,0.0,0.0,0.0
13/09/2023,01:58:13,-0.000,0.0,0.0,0.0
13/09/2023,01:59:14,0.000,0.0,0.0,0.0
13/09/2023,02:00:14,-0.000,0.0,0.0,0.0
13/09/2023,02:01:14,-0.000,0.0,0.0,0.0
13/09/2023,02:02:13,0.001,0.0,0.0,0.0
13/09/2023,02:03:14,-0.001,0.0,0.0,0.0
13/09/2023,02:04:13,-0.000,0.0,0.0,0.0
13/09/2023,02:05:13,0.001,0.0,0.0,0.0
13/09/2023,02:06:14,-0.000,0.0,0.0,0.0
13/09/2023,02:07:14,-0.001,0.0,0.0,0.0
13/09/2023,02:08:13,0.000,0.0,0.0,0.0
13/09/2023,02:09:13,-0.000,0.0,0.0,0.0
13/09/2023,02:10:13,-0.001,0.0,0.0,0.0
13/09/2023,02:11:13,0.000,0.0,0.0,0.0
13/09/2023,02:12:14,-0.001,0.0,0.0,0.0
13/09/2023,02:13:14,0.000,0.0,0.0,0.0
13/09/2023,02:14:13,0.000,0.0,0.0,0.0
13/09/2023,02:15:14,-0.001,0.0,0.0,0.0
13/09/2023,02:16:13,0.001,0.0,0.0,0.0
13/09/2023,02:17:14,0.001,0.0,0.0,0.0
13/09/2023,02:18:13,0.001,0.0,0.0,0.0
13/09/2023,02:19:13,0.000,0.0,0.0,0.0
13/09/2023,02:20:14,0.001,0.0,0.0,0.0
13/09/2023,02:21:13,0.000,0.0,0.0,0.0
13/09/2023,02:22:13,-0.001,0.0,0.0,0.0
13/09/2023,02:23:13,-0.001,0.0,0.0,0.0
13/09/2023,02:24:13,0.000,0.0,0.0,0.0
13/09/2023,02:25:14,0.001,0.0,0.0,0.0
13/09/2023,02:26:13,0.000,0.0,0.0,0.0
13/09/2023,02:27:14,-0.001,0.0,0.0,0.0
13/09/2023,02:28:13,-0.001,0.0,0.0,0.0
13/09/2023,02:29:13,0.000,0.0,0.0,0.0
13/09/2023,02:30:14,0.000,0.0,0.0,0.0
13/09/2023,02:31:14,0.000,0.0,0.0,0.0
13/09/2023,02:32:14,0.000,0.0,0.0,0.0
13/09/2023,02:33:13,-0.000,0.0,0.0,0.0
13/09/2023,02:34:14,0.001,0.0,0.0,0.0
13/09/2023,02:35:13,0.001,0.0,0.0,0.0
13/09/2023,02:36:13,0.000,0.0,0.0,0.0
13/09/2023,02:37:14,0.000,0.0,0.0,0.0
13/09/2023,02:38:13,0.000,0.0,0.0,0.0
13/09/2023,02:39:13,0.000,0.0,0.0,0.0
13/09/2023,02:40:14,0.001,0.0,0.0,0.0
13/09/2023,02:41:13,0.001,0.0,0.0,0.0
13/09/2023,02:42:13,0.001,0.0,0.0,0.0
13/09/2023,02:43:14,0.001,0.0,0.0,0.0
13/09/2023,02:44:13,0.000,0.0,0.0,0.0
13/09/2023,02:45:14,0.001,0.0,0.0,0.0
13/09/2023,02:46:13,0.001,0.0,0.0,0.0
13/09/2023,02:47:11,0.000,0.0,0.0,0.0
13/09/2023,02:48:12,-0.000,0.0,0.0,0.0
13/09/2023,02:49:14,0.001,0.0,0.0,0.0
13/09/2023,02:50:13,0.001,0.0,0.0,0.0
13/09/2023,02:51:13,0.000,0.0,0.0,0.0
13/09/2023,02:52:13,0.001,0.0,0.0,0.0
13/09/2023,02:53:14,0.001,0.0,0.0,0.0
13/09/2023,02:54:13,0.001,0.0,0.0,0.0
13/09/2023,02:55:14,0.001,0.0,0.0,0.0
13/09/2023,02:56:13,0.001,0.0,0.0,0.0
13/09/2023,02:57:13,0.001,0.0,0.0,0.0
13/09/2023,02:58:14,0.001,0.0,0.0,0.0
13/09/2023,02:59:14,0.001,0.0,0.0,0.0
13/09/2023,03:00:13,0.001,0.0,0.0,0.0
13/09/2023,03:01:14,0.002,0.0,0.0,0.0
13/09/2023,03:02:13,0.002,0.0,0.0,0.0
13/09/2023,03:03:14,0.002,0.0,0.0,0.0
13/09/2023,03:04:13,0.000,0.0,0.0,0.0
13/09/2023,03:05:13,0.000,0.0,0.0,0.0
13/09/2023,03:06:14,0.001,0.0,0.0,0.0
13/09/2023,03:07:14,-0.000,0.0,0.0,0.0
13/09/2023,03:08:14,0.001,0.0,0.0,0.0
13/09/2023,03:09:13,0.000,0.0,0.0,0.0
13/09/2023,03:10:13,0.001,0.0,0.0,0.0
13/09/2023,03:11:13,-0.000,0.0,0.0,0.0
13/09/2023,03:12:14,0.001,0.0,0.0,0.0
13/09/2023,03:13:13,0.001,0.0,0.0,0.0
13/09/2023,03:14:13,0.002,0.0,0.0,0.0
13/09/2023,03:15:14,0.002,0.0,0.0,0.0
13/09/2023,03:16:13,0.000,0.0,0.0,0.0
13/09/2023,03:17:14,0.002,0.0,0.0,0.0
13/09/2023,03:18:13,0.001,0.0,0.0,0.0
13/09/2023,03:19:13,0.001,0.0,0.0,0.0
13/09/2023,03:20:14,0.001,0.0,0.0,0.0
13/09/2023,03:21:13,0.001,0.0,0.0,0.0
13/09/2023,03:22:13,0.001,0.0,0.0,0.0
13/09/2023,03:23:14,0.002,0.0,0.0,0.0
13/09/2023,03:24:13,0.000,0.0,0.0,0.0
13/09/2023,03:25:13,-0.000,0.0,0.0,0.0
13/09/2023,03:26:18,0.001,0.0,0.0,0.0
13/09/2023,03:27:14,0.001,0.0,0.0,0.0
13/09/2023,03:28:14,0.001,0.0,0.0,0.0
13/09/2023,03:29:14,-0.000,0.0,0.0,0.0
13/09/2023,03:30:13,0.002,0.0,0.0,0.0
13/09/2023,03:31:15,0.000,0.0,0.0,0.0
13/09/2023,03:32:17,0.001,0.0,0.0,0.0
13/09/2023,03:33:15,0.002,0.0,0.0,0.0
13/09/2023,03:34:13,0.000,0.0,0.0,0.0
13/09/2023,03:35:13,0.001,0.0,0.0,0.0
13/09/2023,03:36:14,0.000,0.0,0.0,0.0
13/09/2023,03:37:13,0.001,0.0,0.0,0.0
13/09/2023,03:38:14,0.001,0.0,0.0,0.0
13/09/2023,03:39:13,0.000,0.0,0.0,0.0
13/09/2023,03:40:14,0.001,0.0,0.0,0.0
13/09/2023,03:41:13,0.001,0.0,0.0,0.0
13/09/2023,03:42:13,0.001,0.0,0.0,0.0
13/09/2023,03:43:14,-0.000,0.0,0.0,0.0
13/09/2023,03:44:14,0.002,0.0,0.0,0.0
13/09/2023,03:45:13,0.001,0.0,0.0,0.0
13/09/2023,03:46:14,0.002,0.0,0.0,0.0
13/09/2023,03:47:14,0.001,0.0,0.0,0.0
13/09/2023,03:48:14,0.001,0.0,0.0,0.0
13/09/2023,03:49:14,0.001,0.0,0.0,0.0
13/09/2023,03:50:12,0.001,0.0,0.0,0.0
13/09/2023,03:51:12,0.002,0.0,0.0,0.0
13/09/2023,03:52:14,0.000,0.0,0.0,0.0
13/09/2023,03:53:13,-0.000,0.0,0.0,0.0
13/09/2023,03:54:13,0.001,0.0,0.0,0.0
13/09/2023,03:55:14,0.000,0.0,0.0,0.0
13/09/2023,03:56:13,0.001,0.0,0.0,0.0
13/09/2023,03:57:13,0.001,0.0,0.0,0.0
13/09/2023,03:58:13,0.001,0.0,0.0,0.0
13/09/2023,03:59:13,0.001,0.0,0.0,0.0
13/09/2023,04:00:14,0.002,0.0,0.0,0.0
13/09/2023,04:01:14,0.002,0.0,0.0,0.0
13/09/2023,04:02:14,0.000,0.0,0.0,0.0
13/09/2023,04:03:13,0.001,0.0,0.0,0.0
13/09/2023,04:04:14,0.002,0.0,0.0,0.0
13/09/2023,04:05:13,0.001,0.0,0.0,0.0
13/09/2023,04:06:13,0.001,0.0,0.0,0.0
13/09/2023,04:07:15,0.001,0.0,0.0,0.0
13/09/2023,04:08:13,0.001,0.0,0.0,0.0
13/09/2023,04:09:13,0.001,0.0,0.0,0.0
13/09/2023,04:10:13,0.001,0.0,0.0,0.0
13/09/2023,04:11:14,0.001,0.0,0.0,0.0
13/09/2023,04:12:14,0.001,0.0,0.0,0.0
13/09/2023,04:13:13,0.001,0.0,0.0,0.0
13/09/2023,04:14:14,0.001,0.0,0.0,0.0
13/09/2023,04:15:14,0.001,0.0,0.0,0.0
13/09/2023,04:16:13,0.002,0.0,0.0,0.0
13/09/2023,04:17:14,0.001,0.0,0.0,0.0
13/09/2023,04:18:13,0.001,0.0,0.0,0.0
13/09/2023,04:19:14,0.001,0.0,0.0,0.0
13/09/2023,04:20:13,0.002,0.0,0.0,0.0
13/09/2023,04:21:13,0.001,0.0,0.0,0.0
13/09/2023,04:22:14,0.002,0.0,0.0,0.0
13/09/2023,04:23:13,0.000,0.0,0.0,0.0
13/09/2023,04:24:14,0.000,0.0,0.0,0.0
13/09/2023,04:25:13,0.001,0.0,0.0,0.0
13/09/2023,04:26:13,0.002,0.0,0.0,0.0
13/09/2023,04:27:14,0.001,0.0,0.0,0.0
13/09/2023,04:28:13,0.002,0.0,0.0,0.0
13/09/2023,04:29:13,0.001,0.0,0.0,0.0
13/09/2023,04:30:14,0.002,0.0,0.0,0.0
13/09/2023,04:31:14,0.001,0.0,0.0,0.0
13/09/2023,04:32:13,0.001,0.0,0.0,0.0
13/09/2023,04:33:13,0.002,0.0,0.0,0.0
13/09/2023,04:34:35,-0.000,0.0,0.0,0.0
13/09/2023,04:35:12,0.001,0.0,0.0,0.0
13/09/2023,04:36:13,0.001,0.0,0.0,0.0
13/09/2023,04:37:14,0.001,0.0,0.0,0.0
13/09/2023,04:38:13,0.001,0.0,0.0,0.0
13/09/2023,04:39:14,0.001,0.0,0.0,0.0
13/09/2023,04:40:14,0.001,0.0,0.0,0.0
13/09/2023,04:41:13,0.001,0.0,0.0,0.0
13/09/2023,04:42:11,0.001,0.0,0.0,0.0
13/09/2023,04:43:11,0.001,0.0,0.0,0.0
13/09/2023,04:44:14,0.002,0.0,0.0,0.0
13/09/2023,04:45:14,0.001,0.0,0.0,0.0
13/09/2023,04:46:14,0.000,0.0,0.0,0.0
13/09/2023,04:47:14,0.002,0.0,0.0,0.0
13/09/2023,04:48:13,0.001,0.0,0.0,0.0
13/09/2023,04:49:14,0.001,0.0,0.0,0.0
13/09/2023,04:50:13,0.001,0.0,0.0,0.0
13/09/2023,04:51:13,0.001,0.0,0.0,0.0
13/09/2023,04:52:13,0.001,0.0,0.0,0.0
13/09/2023,04:53:13,0.001,0.0,0.0,0.0
13/09/2023,04:54:14,0.000,0.0,0.0,0.0
13/09/2023,04:55:13,0.001,0.0,0.0,0.0
13/09/2023,04:56:13,0.002,0.0,0.0,0.0
13/09/2023,04:57:14,0.001,0.0,0.0,0.0
13/09/2023,04:58:13,0.002,0.0,0.0,0.0
13/09/2023,04:59:12,0.001,0.0,0.0,0.0
13/09/2023,05:00:12,0.001,0.0,0.0,0.0
13/09/2023,05:01:14,0.002,0.0,0.0,0.0
13/09/2023,05:02:14,0.002,0.0,0.0,0.0
13/09/2023,05:03:14,0.002,0.0,0.0,0.0
13/09/2023,05:04:14,0.002,0.0,0.0,0.0
13/09/2023,05:05:13,0.002,0.0,0.0,0.0
13/09/2023,05:06:13,0.001,0.0,0.0,0.0
13/09/2023,05:07:12,0.002,0.0,0.0,0.0
13/09/2023,05:08:12,0.001,0.0,0.0,0.0
13/09/2023,05:09:14,0.001,0.0,0.0,0.0
13/09/2023,05:10:13,0.001,0.0,0.0,0.0
13/09/2023,05:11:12,0.001,0.0,0.0,0.0
13/09/2023,05:12:14,0.002,0.0,0.0,0.0
13/09/2023,05:13:14,0.001,0.0,0.0,0.0
13/09/2023,05:14:14,0.002,0.0,0.0,0.0
13/09/2023,05:15:13,0.002,0.0,0.0,0.0
13/09/2023,05:16:13,0.002,0.0,0.0,0.0
13/09/2023,05:17:14,0.002,0.0,0.0,0.0
13/09/2023,05:18:14,0.003,0.0,0.0,0.0
13/09/2023,05:19:14,0.001,0.0,0.0,0.0
13/09/2023,05:20:14,0.002,0.0,0.0,0.0
13/09/2023,05:21:14,0.002,0.0,0.0,0.0
13/09/2023,05:22:14,0.001,0.0,0.0,0.0
13/09/2023,05:23:14,0.002,0.0,0.0,0.0
13/09/2023,05:24:14,0.003,0.0,0.0,0.0
13/09/2023,05:25:14,0.003,0.0,0.0,0.0
13/09/2023,05:26:13,0.002,0.0,0.0,0.0
13/09/2023,05:27:13,0.002,0.0,0.0,0.0
13/09/2023,05:28:14,0.003,0.0,0.0,0.0
13/09/2023,05:29:14,0.003,0.0,0.0,0.0
13/09/2023,05:30:13,0.004,0.0,0.0,0.0
13/09/2023,05:31:13,0.004,0.0,0.0,0.0
13/09/2023,05:32:14,0.003,0.0,0.0,0.0
13/09/2023,05:33:14,0.004,0.0,0.0,0.0
13/09/2023,05:34:14,0.004,0.0,0.0,0.0
13/09/2023,05:35:14,0.004,0.0,0.0,0.0
13/09/2023,05:36:14,0.004,0.0,0.0,0.0
13/09/2023,05:37:14,0.005,0.0,0.0,0.0
13/09/2023,05:38:14,0.006,0.0,0.0,0.0
13/09/2023,05:39:13,0.005,0.0,0.0,0.0
13/09/2023,05:40:14,0.004,0.0,0.0,0.0
13/09/2023,05:41:14,0.006,0.0,0.0,0.0
13/09/2023,05:42:13,0.006,0.0,0.0,0.0
13/09/2023,05:43:14,0.006,0.0,0.0,0.0
13/09/2023,05:44:13,0.006,0.0,0.0,0.0
13/09/2023,05:45:14,0.007,0.0,0.0,0.0
13/09/2023,05:46:13,0.007,0.0,0.0,0.0
13/09/2023,05:47:14,0.007,0.0,0.0,0.0
13/09/2023,05:48:14,0.008,0.0,0.001,0.001
13/09/2023,05:49:14,0.008,0.0,0.001,0.0
13/09/2023,05:50:14,0.008,0.0,0.001,0.0
13/09/2023,05:51:13,0.009,0.0,0.001,0.0
13/09/2023,05:52:14,0.009,0.0,0.001,0.0
13/09/2023,05:53:17,0.009,0.0,0.001,0.0
13/09/2023,05:54:14,0.009,0.0,0.001,0.0
13/09/2023,05:55:14,0.011,0.0,0.002,0.001
13/09/2023,05:56:13,0.010,0.0,0.002,0.0
13/09/2023,05:57:13,0.012,0.0,0.002,0.0
13/09/2023,05:58:14,0.012,0.0,0.002,0.0
13/09/2023,05:59:13,0.013,0.0,0.002,0.0
13/09/2023,06:00:14,0.013,0.0,0.003,0.001
13/09/2023,06:01:13,0.014,0.0,0.003,0.0
13/09/2023,06:02:13,0.014,0.0,0.003,0.0
13/09/2023,06:03:14,0.015,0.0,0.003,0.0
13/09/2023,06:04:13,0.016,0.0,0.004,0.001
13/09/2023,06:05:13,0.017,0.0,0.004,0.0
13/09/2023,06:06:14,0.018,0.0,0.004,0.0
13/09/2023,06:07:14,0.017,0.0,0.005,0.001
13/09/2023,06:08:14,0.018,0.0,0.005,0.0
13/09/2023,06:09:14,0.020,0.0,0.005,0.0
13/09/2023,06:10:13,0.020,0.0,0.005,0.0
13/09/2023,06:11:14,0.020,0.0,0.006,0.001
13/09/2023,06:12:14,0.022,0.0,0.006,0.0
13/09/2023,06:13:14,0.023,0.0,0.007,0.001
13/09/2023,06:14:14,0.023,0.0,0.007,0.0
13/09/2023,06:15:14,0.024,0.0,0.007,0.0
13/09/2023,06:16:14,0.026,0.0,0.008,0.001
13/09/2023,06:17:14,0.026,0.0,0.008,0.0
13/09/2023,06:18:15,0.028,0.0,0.009,0.001
13/09/2023,06:19:14,0.028,0.0,0.009,0.0
13/09/2023,06:20:14,0.030,0.0,0.01,0.001
13/09/2023,06:21:14,0.031,0.0,0.01,0.0
13/09/2023,06:22:14,0.031,0.0,0.011,0.001
13/09/2023,06:23:14,0.033,0.0,0.011,0.0
13/09/2023,06:24:14,0.034,0.0,0.012,0.001
13/09/2023,06:25:14,0.035,0.0,0.012,0.0
13/09/2023,06:26:14,0.037,0.0,0.013,0.001
13/09/2023,06:27:13,0.037,0.0,0.013,0.0
13/09/2023,06:28:13,0.039,0.0,0.014,0.001
13/09/2023,06:29:14,0.040,0.0,0.015,0.001
13/09/2023,06:30:13,0.041,0.0,0.015,0.0
13/09/2023,06:31:13,0.041,0.0,0.016,0.001
13/09/2023,06:32:14,0.043,0.0,0.017,0.001
13/09/2023,06:33:14,0.045,0.0,0.018,0.001
13/09/2023,06:34:14,0.045,0.0,0.018,0.0
13/09/2023,06:35:14,0.048,0.0,0.019,0.001
13/09/2023,06:36:14,0.050,0.0,0.02,0.001
13/09/2023,06:37:14,0.051,0.0,0.021,0.001
13/09/2023,06:38:14,0.053,0.0,0.022,0.001
13/09/2023,06:39:14,0.054,0.0,0.023,0.001
13/09/2023,06:40:14,0.055,0.0,0.023,0.0
13/09/2023,06:41:14,0.057,0.0,0.024,0.001
13/09/2023,06:42:14,0.058,0.0,0.025,0.001
13/09/2023,06:43:14,0.059,0.0,0.026,0.001
13/09/2023,06:44:14,0.062,0.0,0.027,0.001
13/09/2023,06:45:14,0.064,0.0,0.028,0.001
13/09/2023,06:46:14,0.065,0.0,0.029,0.001
13/09/2023,06:47:12,0.067,0.0,0.03,0.001
13/09/2023,06:48:12,0.069,0.0,0.032,0.002
13/09/2023,06:49:14,0.071,0.0,0.033,0.001
13/09/2023,06:50:13,0.073,0.0,0.034,0.001
13/09/2023,06:51:13,0.075,0.0,0.035,0.001
13/09/2023,06:52:14,0.078,0.0,0.037,0.002
13/09/2023,06:53:14,0.079,0.0,0.038,0.001
13/09/2023,06:54:14,0.080,0.0,0.039,0.001
13/09/2023,06:55:14,0.082,0.0,0.041,0.002
13/09/2023,06:56:14,0.084,0.0,0.042,0.001
13/09/2023,06:57:14,0.087,0.0,0.043,0.001
13/09/2023,06:58:14,0.088,0.0,0.045,0.002
13/09/2023,06:59:14,0.090,0.0,0.046,0.001
13/09/2023,07:00:14,0.093,0.0,0.048,0.002
13/09/2023,07:01:14,0.096,0.0,0.049,0.001
13/09/2023,07:02:14,0.097,0.0,0.051,0.002
13/09/2023,07:03:14,0.100,0.0,0.053,0.002
13/09/2023,07:04:14,0.102,0.0,0.054,0.001
13/09/2023,07:05:13,0.104,0.0,0.056,0.002
13/09/2023,07:06:14,0.107,0.0,0.058,0.002
13/09/2023,07:07:14,0.110,0.0,0.06,0.002
13/09/2023,07:08:14,0.111,0.0,0.061,0.001
13/09/2023,07:09:14,0.115,0.0,0.063,0.002
13/09/2023,07:10:13,0.118,0.0,0.065,0.002
13/09/2023,07:11:14,0.121,0.0,0.067,0.002
13/09/2023,07:12:14,0.124,0.0,0.069,0.002
13/09/2023,07:13:14,0.125,0.0,0.071,0.002
13/09/2023,07:14:14,0.129,0.0,0.074,0.003
13/09/2023,07:15:14,0.132,0.0,0.076,0.002
13/09/2023,07:16:14,0.136,0.0,0.078,0.002
13/09/2023,07:17:14,0.138,0.0,0.08,0.002
13/09/2023,07:18:14,0.141,0.0,0.083,0.003
13/09/2023,07:19:14,0.144,0.0,0.085,0.002
13/09/2023,07:20:14,0.147,0.0,0.087,0.002
13/09/2023,07:21:14,0.150,0.0,0.09,0.003
13/09/2023,07:22:14,0.155,0.0,0.092,0.002
13/09/2023,07:23:13,0.154,0.0,0.095,0.003
13/09/2023,07:24:14,0.154,0.0,0.097,0.002
13/09/2023,07:25:13,0.156,0.0,0.1,0.003
13/09/2023,07:26:14,0.160,0.0,0.103,0.003
13/09/2023,07:27:14,0.165,0.0,0.105,0.002
13/09/2023,07:28:15,0.169,0.0,0.108,0.003
13/09/2023,07:29:14,0.173,0.0,0.111,0.003
13/09/2023,07:30:14,0.176,0.0,0.114,0.003
13/09/2023,07:31:14,0.176,0.0,0.117,0.003
13/09/2023,07:32:14,0.184,0.0,0.12,0.003
13/09/2023,07:33:14,0.190,0.0,0.123,0.003
13/09/2023,07:34:14,0.193,0.0,0.126,0.003
13/09/2023,07:35:14,0.195,0.0,0.129,0.003
13/09/2023,07:36:14,0.200,0.0,0.133,0.004
13/09/2023,07:37:14,0.199,0.0,0.136,0.003
13/09/2023,07:38:14,0.201,0.0,0.139,0.003
13/09/2023,07:39:13,0.198,0.0,0.143,0.004
13/09/2023,07:40:14,0.202,0.0,0.146,0.003
13/09/2023,07:41:13,0.210,0.0,0.15,0.004
13/09/2023,07:42:13,0.216,0.0,0.153,0.003
13/09/2023,07:43:14,0.218,1.0,0.157,0.004
13/09/2023,07:44:14,0.224,1.0,0.16,0.003
13/09/2023,07:45:14,0.226,1.0,0.164,0.004
13/09/2023,07:46:13,0.226,1.0,0.168,0.004
13/09/2023,07:47:14,0.231,1.0,0.172,0.004
13/09/2023,07:48:14,0.234,1.0,0.176,0.004
13/09/2023,07:49:14,0.237,1.0,0.179,0.003
13/09/2023,07:50:14,0.237,1.0,0.183,0.004
13/09/2023,07:51:14,0.238,1.0,0.187,0.004
13/09/2023,07:52:14,0.242,1.0,0.191,0.004
13/09/2023,07:53:14,0.253,1.0,0.196,0.005
13/09/2023,07:54:12,0.261,1.0,0.2,0.004
13/09/2023,07:55:12,0.270,1.0,0.204,0.004
13/09/2023,07:56:14,0.281,1.0,0.209,0.005
13/09/2023,07:57:14,0.271,1.0,0.214,0.005
13/09/2023,07:58:14,0.297,1.0,0.218,0.004
13/09/2023,07:59:14,0.296,1.0,0.223,0.005
13/09/2023,08:00:12,0.296,1.0,0.228,0.005
13/09/2023,08:01:12,0.315,1.0,0.233,0.005
13/09/2023,08:02:14,0.321,1.0,0.238,0.005
13/09/2023,08:03:13,0.287,1.0,0.244,0.006
13/09/2023,08:04:14,0.304,1.0,0.249,0.005
13/09/2023,08:05:14,0.307,1.0,0.254,0.005
13/09/2023,08:06:14,0.305,1.0,0.259,0.005
13/09/2023,08:07:14,0.300,1.0,0.264,0.005
13/09/2023,08:08:14,0.317,1.0,0.269,0.005
13/09/2023,08:09:14,0.305,1.0,0.274,0.005
13/09/2023,08:10:14,0.299,1.0,0.279,0.005
13/09/2023,08:11:14,0.299,1.0,0.284,0.005
13/09/2023,08:12:14,0.300,1.0,0.289,0.005
13/09/2023,08:13:14,0.305,1.0,0.294,0.005
13/09/2023,08:14:13,0.309,1.0,0.3,0.006
13/09/2023,08:15:13,0.312,1.0,0.305,0.005
13/09/2023,08:16:14,0.317,1.0,0.31,0.005
13/09/2023,08:17:14,0.317,1.0,0.315,0.005
13/09/2023,08:18:14,0.321,1.0,0.321,0.006
13/09/2023,08:19:14,0.320,1.0,0.326,0.005
13/09/2023,08:20:14,0.330,1.0,0.331,0.005
13/09/2023,08:21:13,0.340,1.0,0.337,0.006
13/09/2023,08:22:14,0.366,1.0,0.343,0.006
13/09/2023,08:23:14,0.399,1.0,0.349,0.006
13/09/2023,08:24:14,0.411,1.0,0.356,0.007
13/09/2023,08:25:14,0.396,1.0,0.363,0.007
13/09/2023,08:26:14,0.424,1.0,0.369,0.006
13/09/2023,08:27:14,0.450,1.0,0.376,0.007
13/09/2023,08:28:14,0.447,1.0,0.384,0.008
13/09/2023,08:29:14,0.445,1.0,0.391,0.007
13/09/2023,08:30:14,0.448,1.0,0.399,0.008
13/09/2023,08:31:14,0.496,1.0,0.407,0.008
13/09/2023,08:32:14,0.462,1.0,0.415,0.008
13/09/2023,08:33:14,0.467,1.0,0.422,0.007
13/09/2023,08:34:14,0.463,1.0,0.43,0.008
13/09/2023,08:35:14,0.460,1.0,0.438,0.008
13/09/2023,08:36:14,0.455,1.0,0.445,0.007
13/09/2023,08:37:14,0.477,1.0,0.453,0.008
13/09/2023,08:38:14,0.520,1.0,0.461,0.008
13/09/2023,08:39:14,0.540,1.0,0.47,0.009
13/09/2023,08:40:14,0.548,1.0,0.479,0.009
13/09/2023,08:41:14,0.554,1.0,0.488,0.009
13/09/2023,08:42:14,0.560,1.0,0.498,0.01
13/09/2023,08:43:14,0.567,1.0,0.507,0.009
13/09/2023,08:44:14,0.573,1.0,0.516,0.009
13/09/2023,08:45:14,0.581,1.0,0.526,0.01
13/09/2023,08:46:14,0.589,1.0,0.536,0.01
13/09/2023,08:47:14,0.594,1.0,0.546,0.01
13/09/2023,08:48:14,0.605,1.0,0.556,0.01
13/09/2023,08:49:15,0.603,1.0,0.566,0.01
13/09/2023,08:50:15,0.602,1.0,0.576,0.01
13/09/2023,08:51:12,0.619,1.0,0.585,0.009
13/09/2023,08:52:12,0.628,1.0,0.596,0.011
13/09/2023,08:53:15,0.632,1.0,0.607,0.011
13/09/2023,08:54:14,0.572,1.0,0.617,0.01
13/09/2023,08:55:14,0.526,1.0,0.626,0.009
13/09/2023,08:56:14,0.525,1.0,0.635,0.009
13/09/2023,08:57:14,0.603,1.0,0.645,0.01
13/09/2023,08:58:14,0.601,1.0,0.655,0.01
13/09/2023,08:59:14,0.533,1.0,0.664,0.009
13/09/2023,09:00:15,0.564,1.0,0.673,0.009
13/09/2023,09:01:14,0.688,2.0,0.684,0.011
13/09/2023,09:02:14,0.689,2.0,0.696,0.012
13/09/2023,09:03:14,0.556,1.0,0.707,0.011
13/09/2023,09:04:14,0.657,2.0,0.717,0.01
13/09/2023,09:05:14,0.563,1.0,0.727,0.01
13/09/2023,09:06:14,0.559,1.0,0.737,0.01
13/09/2023,09:07:14,0.574,1.0,0.746,0.009
13/09/2023,09:08:14,0.651,1.0,0.757,0.011
13/09/2023,09:09:14,0.629,1.0,0.767,0.01
13/09/2023,09:10:14,0.599,1.0,0.778,0.011
13/09/2023,09:11:12,0.563,1.0,0.787,0.009
13/09/2023,09:12:12,0.567,1.0,0.797,0.01
13/09/2023,09:13:14,0.691,2.0,0.808,0.011
13/09/2023,09:14:14,0.766,2.0,0.82,0.012
13/09/2023,09:15:14,0.780,2.0,0.833,0.013
13/09/2023,09:16:12,0.718,2.0,0.845,0.012
13/09/2023,09:17:12,0.566,1.0,0.856,0.011
13/09/2023,09:18:13,0.525,1.0,0.865,0.009
13/09/2023,09:19:12,0.466,1.0,0.873,0.008
13/09/2023,09:20:14,0.515,1.0,0.882,0.009
13/09/2023,09:21:14,0.589,1.0,0.891,0.009
13/09/2023,09:22:14,0.523,1.0,0.9,0.009
13/09/2023,09:23:14,0.543,1.0,0.909,0.009
13/09/2023,09:24:14,0.496,1.0,0.917,0.008
13/09/2023,09:25:14,0.499,1.0,0.925,0.008
13/09/2023,09:26:14,0.534,1.0,0.934,0.009
13/09/2023,09:27:12,0.579,1.0,0.943,0.009
13/09/2023,09:28:12,0.690,2.0,0.953,0.01
13/09/2023,09:29:14,0.577,1.0,0.964,0.011
13/09/2023,09:30:14,0.544,1.0,0.974,0.01
13/09/2023,09:31:14,0.524,1.0,0.983,0.009
13/09/2023,09:32:14,0.503,1.0,0.991,0.008
13/09/2023,09:33:14,0.502,1.0,1.0,0.009
13/09/2023,09:34:14,0.580,1.0,1.008,0.008
13/09/2023,09:35:14,0.587,1.0,1.02,0.012
13/09/2023,09:36:15,0.787,2.0,1.03,0.01
13/09/2023,09:37:14,0.794,2.0,1.043,0.013
13/09/2023,09:38:14,0.823,2.0,1.055,0.012
13/09/2023,09:39:15,0.726,2.0,1.069,0.014
13/09/2023,09:40:15,0.649,1.0,1.08,0.011
13/09/2023,09:41:15,0.648,1.0,1.091,0.011
13/09/2023,09:42:14,0.670,2.0,1.102,0.011
13/09/2023,09:43:14,0.647,1.0,1.112,0.01
13/09/2023,09:44:15,0.639,1.0,1.124,0.012
13/09/2023,09:45:14,0.658,2.0,1.135,0.011
13/09/2023,09:46:14,0.676,2.0,1.147,0.012
13/09/2023,09:47:14,0.700,2.0,1.159,0.012
13/09/2023,09:48:14,0.667,2.0,1.171,0.012
13/09/2023,09:49:14,0.640,1.0,1.182,0.011
13/09/2023,09:50:15,0.639,1.0,1.192,0.01
13/09/2023,09:51:14,0.658,2.0,1.203,0.011
13/09/2023,09:52:14,0.671,2.0,1.214,0.011
13/09/2023,09:53:15,0.681,2.0,1.226,0.012
13/09/2023,09:54:14,0.692,2.0,1.237,0.011
13/09/2023,09:55:14,0.717,2.0,1.249,0.012
13/09/2023,09:56:14,0.732,2.0,1.261,0.012
13/09/2023,09:57:14,0.829,2.0,1.273,0.012
13/09/2023,09:58:14,0.737,2.0,1.287,0.014
13/09/2023,09:59:14,0.730,2.0,1.299,0.012
13/09/2023,10:00:14,0.746,2.0,1.311,0.012
13/09/2023,10:01:14,0.763,2.0,1.325,0.014
13/09/2023,10:02:14,0.771,2.0,1.337,0.012